Weather History for KCRP - October, 2012

Change the Weather History Date:

Saturday, October 6, 2012

  Actual Average Record
Temperature  
Mean Temperature 79 °F 77 °F  
Max Temperature 90 °F 86 °F 96 °F (1989)
Min Temperature 67 °F 67 °F 53 °F (1975)
Degree Days  
Heating Degree Days 0 0  
Month to date heating degree days 0 0  
Since 1 July heating degree days 0 0  
Cooling Degree Days 14 12  
Month to date cooling degree days 85 75  
Year to date cooling degree days 3888 3118  
Growing Degree Days 29 (Base 50)    
Moisture  
Dew Point 66 °F    
Average Humidity 69    
Maximum Humidity 90    
Minimum Humidity 47    
Precipitation  
Precipitation 0.00 in 0.12 in 2.26 in (1930)
Month to date precipitation T 0.73  
Year to date precipitation 18.01 25.05  
Snow  
Snow 0.00 in - - ()
Month to date snowfall 0.0  
Since 1 July snowfall 0.0  
Since 1 September snowfall 0.0  
Snow Depth 0.00 in    
Sea Level Pressure  
Sea Level Pressure 29.96 in    
Wind  
Wind Speed 7 mph (East)    
Max Wind Speed 20 mph    
Max Gust Speed 25 mph    
Visibility 10 miles    
Events      
T = Trace of Precipitation, MM = Missing Value Source: NWS Daily Summary

Daily Weather History Graph

Daily Weather History Graph

Search for Another Location

Airport or City:

Trip Planner

Search our weather history database for the weather conditions in past years. The results will help you decide how hot, cold, wet, or windy it might be!

Date:

Astronomy

Oct. 06, 2012 Rise Set
Actual Time 7:25 AM CDT 7:09 PM CDT
Civil Twilight 7:02 AM CDT 7:33 PM CDT
Nautical Twilight 6:35 AM CDT 8:00 PM CDT
Astronomical Twilight 6:07 AM CDT 8:27 PM CDT
Moon 11:48 PM CDT (10/6) 12:58 PM CDT (10/6)
Length of Visible Light 12h 31m
Length of Day
11h 44m
Waning Gibbous, 65% of the Moon is Illuminated
Oct 6
Waning Gibbous
Oct 8
Last Quarter
Oct 15
New
Oct 21
First Quarter
Oct 29
Full

Hourly Weather History & Observations

Time (CDT) Temp. Heat Index Dew Point Humidity Pressure Visibility Wind Dir Wind Speed Gust Speed Precip Events Conditions
12:51 AM 73.0 °F - 66.9 °F 81% 29.97 in 10.0 mi SSE 5.8 mph - N/A   Clear
1:51 AM 71.1 °F - 66.0 °F 84% 29.96 in 10.0 mi SSE 4.6 mph - N/A   Clear
2:51 AM 69.1 °F - 64.0 °F 84% 29.96 in 10.0 mi Calm Calm - N/A   Partly Cloudy
3:51 AM 69.1 °F - 64.0 °F 84% 29.95 in 10.0 mi West 3.5 mph - N/A   Scattered Clouds
4:51 AM 70.0 °F - 66.0 °F 87% 29.95 in 10.0 mi Calm Calm - N/A   Mostly Cloudy
5:51 AM 71.1 °F - 66.9 °F 87% 29.96 in 10.0 mi Calm Calm - N/A   Partly Cloudy
6:51 AM 68.0 °F - 64.4 °F 88% 29.98 in 10.0 mi NW 4.6 mph - N/A   Partly Cloudy
7:51 AM 69.1 °F - 64.9 °F 87% 29.99 in 10.0 mi North 5.8 mph - N/A   Scattered Clouds
8:51 AM 75.9 °F - 69.1 °F 79% 30.00 in 10.0 mi North 5.8 mph - N/A   Partly Cloudy
9:51 AM 81.0 °F 83.8 °F 68.0 °F 65% 30.01 in 10.0 mi NNW 3.5 mph - N/A   Partly Cloudy
10:51 AM 82.9 °F 85.8 °F 68.0 °F 60% 30.00 in 10.0 mi Variable 3.5 mph - N/A   Scattered Clouds
11:51 AM 86.0 °F 89.4 °F 68.0 °F 55% 30.00 in 10.0 mi South 8.1 mph - N/A   Mostly Cloudy
12:51 PM 87.1 °F 89.9 °F 66.9 °F 51% 29.98 in 10.0 mi SE 5.8 mph - N/A   Scattered Clouds
1:51 PM 89.1 °F 91.3 °F 66.0 °F 46% 29.95 in 10.0 mi ENE 10.4 mph - N/A   Scattered Clouds
2:51 PM 89.6 °F 92.2 °F 66.2 °F 46% 29.93 in 10.0 mi East 9.2 mph 16.1 mph N/A   Scattered Clouds
3:51 PM 88.0 °F 90.7 °F 66.9 °F 49% 29.92 in 10.0 mi ESE 12.7 mph - N/A   Scattered Clouds
4:51 PM 86.0 °F 87.3 °F 64.4 °F 48% 29.90 in 10.0 mi ESE 12.7 mph - N/A   Partly Cloudy
5:51 PM 84.2 °F 85.6 °F 64.4 °F 51% 29.91 in 10.0 mi East 12.7 mph - N/A   Partly Cloudy
6:51 PM 82.0 °F 84.1 °F 66.0 °F 58% 29.92 in 10.0 mi East 11.5 mph - N/A   Partly Cloudy
7:51 PM 80.1 °F 82.1 °F 66.0 °F 62% 29.94 in 10.0 mi East 6.9 mph - N/A   Partly Cloudy
8:51 PM 80.1 °F 82.1 °F 66.0 °F 62% 29.95 in 10.0 mi East 9.2 mph - N/A   Scattered Clouds
9:51 PM 79.0 °F - 64.9 °F 62% 29.96 in 10.0 mi East 6.9 mph - N/A   Scattered Clouds
10:51 PM 77.0 °F - 64.9 °F 66% 29.97 in 10.0 mi East 6.9 mph - N/A   Scattered Clouds
11:51 PM 75.9 °F - 64.9 °F 69% 29.98 in 10.0 mi East 4.6 mph - N/A   Partly Cloudy